Preview of NWS' New Version of Forecast
This preview is not operational and should not be used for support decisions.

Regional Weather Roundup (RWR)

Issued by National Weather Service (NWS)

                            
000
ASUS44 KMEG 221400
RWRTN 
TENNESSEE HOURLY STATE WEATHER ROUNDUP
NATIONAL WEATHER SERVICE MEMPHIS TN
900 AM CDT WED MAY 22 2019

TNZ002-004-019-021-049-052-054-088>092-221500-
WEST TENNESSEE
  
CITY           SKY/WX    TMP DP  RH WIND       PRES   REMARKS
MEMPHIS INTL   LGT RAIN  71  67  87 VRB5G20   29.93R                  
NWS MEMPHIS      N/A     76 N/A N/A MISG        N/A                   
JACKSON        FAIR      75  69  81 S13G18    29.95R                  
DYERSBURG      LGT RAIN  66  65  96 CALM      29.96R                  
$$

TNZ008-025-027-028-033-062-065-066-221500-
NORTH MIDDLE TENNESSEE
  
CITY           SKY/WX    TMP DP  RH WIND       PRES   REMARKS
NASHVILLE      CLOUDY    80  65  59 S14G21    30.01S                  
CLARKSVILLE    FAIR      77  66  68 S18G24    29.97R                  
SMYRNA         FAIR      78  67  68 SW9       30.03R                  
CROSSVILLE     FAIR      75  60  59 S7        30.10S                  
$$

TNZ061-075-076-078-094-096-097-221500-
SOUTH MIDDLE TENNESSEE
  
CITY           SKY/WX    TMP DP  RH WIND       PRES   REMARKS
$$

TNZ017-018-042-046-047-221500-
NORTHEAST TENNESSEE
  
CITY           SKY/WX    TMP DP  RH WIND       PRES   REMARKS
TRI CITIES     FAIR      76  61  59 CALM      30.14R                  
$$

TNZ012-013-036-069-073-074-221500-
CENTRAL EAST TENNESSEE
  
CITY           SKY/WX    TMP DP  RH WIND       PRES   REMARKS
KNOXVILLE      FAIR      76  62  62 N5        30.07S                  
OAK RIDGE      FAIR      75  60  59 E6        30.10R                  
$$

TNZ083-085-099-221500-
SOUTHEAST TENNESSEE
  
CITY           SKY/WX    TMP DP  RH WIND       PRES   REMARKS
CHATTANOOGA    FAIR      78  65  63 S5        30.07R                  
$$

SKY/WX REPORTED AS FAIR MEANS FEW OR NO CLOUDS BELOW
12 THOUSAND FEET.